RESOURCESAT-2

Last updated on Mon Sep 07 2026 00:02:45 GMT+0000 (Coordinated Universal Time)

1 37387U 11015A 26249.59225940 -.00000017 00000+0 12260-4 0 9998 2 37387 98.7573 316.4420 0011644 28.4778 331.7033 14.21608301797741
UTC large
Height (km)
Speed (km/s)
/
Latitude / Longitude
Inclination (degrees)
Orbital Period (minutes)
Azimuth
Elevation
Range (km)
Doppler Factor

Next 0 passes for location: London (51.5072 / 0.1276)

No passes found over London.
RESOURCESAT-2